Date String (YYYY-MM-DD hh:mm:ss) UTC,Instrument flags,Ambient pressure (hPa),Sample flow (lpm),Bypass flow (lpm),Sample temperature (°C),Ambient temperature (°C),ASC tube jacket temperature (°C),LED temperature (°C),Box temperature (°C),Sample RH (%),Span deviation,Mass concentration (μg/m³),Mass concentration (μg/m³),Mass concentration (μg/m³)
DateTimeUTC,F1_M11,P_M11,Q1_M11,Q2_M11,T1_M11,T2_M11,T3_M11,T4_M11,T5_M11,U1_M11,ZSPAN_M11,X2_M11,X0_M11,X1_M11
2022-04-28 04:00:00,,0821.2,5.01,0.00,28.4,27.7,00.0,37.5,30.1,14.4,0001.7,0008.04,0021.36,0004.49
2022-04-28 04:01:00,,0821.2,5.01,0.00,28.4,27.7,00.0,37.5,30.1,14.3,0001.6,0008.01,0021.59,0004.50
2022-04-28 04:02:00,,0821.2,4.99,0.00,28.4,27.7,00.0,37.5,30.1,14.3,0002.3,0008.05,0021.60,0004.51
2022-04-28 04:03:00,,0821.2,5.00,0.00,28.4,27.6,00.0,37.4,30.1,14.3,0002.1,0008.12,0021.80,0004.52
2022-04-28 04:04:00,,0821.2,5.01,0.00,28.4,27.6,00.0,37.4,30.1,14.3,0000.5,0008.09,0021.89,0004.52
2022-04-28 04:05:00,,0821.2,4.99,0.00,28.3,27.6,00.0,37.4,30.0,14.2,0002.3,0008.09,0020.98,0004.54
2022-04-28 04:06:00,,0821.2,4.99,0.00,28.3,27.6,00.0,37.4,30.0,14.2,0002.7,0008.14,0020.83,0004.54
2022-04-28 04:07:00,,0821.1,5.00,0.00,28.3,27.5,00.0,37.4,30.0,14.2,0001.0,0008.28,0021.09,0004.55
2022-04-28 04:08:00,,0821.1,5.01,0.00,28.3,27.6,00.0,37.4,30.0,14.3,0000.0,0008.34,0021.56,0004.57
2022-04-28 04:09:00,,0821.2,4.99,0.00,28.3,27.6,00.0,37.4,30.0,14.2,0000.3,0008.41,0021.98,0004.57
2022-04-28 04:10:00,,0821.1,4.99,0.00,28.3,27.6,00.0,37.4,30.0,14.2,0001.2,0008.37,0022.34,0004.56
2022-04-28 04:11:00,,0821.1,5.00,0.00,28.3,27.6,00.0,37.4,30.0,14.2,0001.8,0008.42,0022.64,0004.57
2022-04-28 04:12:00,,0821.1,5.02,0.00,28.3,27.6,00.0,37.4,30.0,14.2,0002.0,0008.41,0022.96,0004.58
2022-04-28 04:13:00,,0821.2,4.99,0.00,28.3,27.5,00.0,37.3,30.0,14.2,0002.1,0008.39,0023.61,0004.60
2022-04-28 04:14:00,,0821.1,4.99,0.00,28.3,27.6,00.0,37.3,30.0,14.2,0001.7,0008.26,0023.28,0004.59
2022-04-28 04:15:00,,0821.1,4.99,0.00,28.3,27.5,00.0,37.3,30.0,14.2,0001.4,0008.21,0023.23,0004.59
2022-04-28 04:16:00,,0821.1,5.02,0.00,28.3,27.5,00.0,37.3,30.0,14.2,0001.4,0008.18,0023.15,0004.58
2022-04-28 04:17:00,,0821.1,4.99,0.00,28.3,27.5,00.0,37.3,30.0,14.2,0001.2,0008.13,0022.97,0004.58
2022-04-28 04:18:00,,0821.1,5.02,0.00,28.3,27.5,00.0,37.3,30.0,14.2,0001.9,0008.00,0022.22,0004.57
2022-04-28 04:19:00,,0821.1,5.00,0.00,28.3,27.5,00.0,37.3,30.0,14.2,0002.5,0007.96,0021.63,0004.57
2022-04-28 04:20:00,,0821.1,4.99,0.00,28.2,27.5,00.0,37.3,30.0,14.2,0002.8,0007.97,0021.10,0004.58
2022-04-28 04:21:00,,0821.1,5.02,0.00,28.2,27.5,00.0,37.3,30.0,14.2,0003.8,0007.94,0020.88,0004.59
2022-04-28 04:22:00,,0821.1,4.99,0.00,28.2,27.5,00.0,37.3,30.0,14.2,0003.7,0007.81,0019.53,0004.58
2022-04-28 04:23:00,,0821.0,4.99,0.00,28.2,27.5,00.0,37.3,30.0,14.2,0003.4,0007.82,0019.42,0004.56
2022-04-28 04:24:00,,0821.0,4.99,0.00,28.2,27.5,00.0,37.3,29.9,14.2,0003.5,0007.79,0018.98,0004.54
2022-04-28 04:25:00,,0821.1,5.00,0.00,28.2,27.5,00.0,37.3,29.9,14.2,0002.5,0007.86,0019.19,0004.52
2022-04-28 04:26:00,,0821.0,5.01,0.00,28.2,27.5,00.0,37.3,29.9,14.2,0000.0,0007.83,0019.13,0004.50
2022-04-28 04:27:00,,0821.1,5.00,0.00,28.2,27.5,00.0,37.2,29.9,14.2,0000.0,0007.75,0018.87,0004.48
2022-04-28 04:28:00,,0821.1,4.99,0.00,28.2,27.5,00.0,37.2,29.9,14.2,0000.0,0007.68,0019.01,0004.47
2022-04-28 04:29:00,,0821.1,5.01,0.00,28.2,27.5,00.0,37.2,29.9,14.2,0000.0,0007.66,0019.02,0004.46
2022-04-28 04:30:00,,0821.1,4.99,0.00,28.2,27.5,00.0,37.2,30.0,14.4,0000.0,0007.62,0019.17,0004.43
2022-04-28 04:31:00,,0821.1,5.00,0.00,28.2,27.6,00.0,37.2,30.0,14.3,0000.0,0007.53,0019.24,0004.43
2022-04-28 04:32:00,,0821.1,5.01,0.00,28.2,27.6,00.0,37.2,30.0,14.2,0000.0,0007.45,0018.90,0004.42
2022-04-28 04:33:00,,0821.1,5.00,0.00,28.2,27.6,00.0,37.2,29.9,14.2,0000.0,0007.56,0019.50,0004.43
2022-04-28 04:34:00,,0821.0,4.98,0.00,28.2,27.6,00.0,37.2,29.9,14.2,0000.0,0007.56,0019.44,0004.43
2022-04-28 04:35:00,,0821.0,5.01,0.00,28.2,27.6,00.0,37.2,29.9,14.1,0000.0,0007.55,0019.24,0004.44
2022-04-28 04:36:00,,0821.1,5.00,0.00,28.2,27.6,00.0,37.2,29.9,14.2,0000.0,0007.51,0018.85,0004.44
2022-04-28 04:37:00,,0821.1,4.99,0.00,28.2,27.6,00.0,37.2,29.9,14.2,0000.0,0007.55,0018.54,0004.46
2022-04-28 04:38:00,,0821.1,4.99,0.00,28.1,27.6,00.0,37.2,29.9,14.2,0000.0,0007.64,0018.57,0004.48
2022-04-28 04:39:00,,0821.0,5.01,0.00,28.1,27.5,00.0,37.2,29.8,14.2,0000.0,0007.65,0018.34,0004.49
2022-04-28 04:40:00,,0821.0,5.00,0.00,28.1,27.5,00.0,37.2,29.8,14.2,0000.0,0007.68,0019.05,0004.50
2022-04-28 04:41:00,,0821.0,5.00,0.00,28.1,27.5,00.0,37.2,29.8,14.2,0000.0,0007.73,0019.69,0004.50
2022-04-28 04:42:00,,0821.0,5.02,0.00,28.1,27.5,00.0,37.2,29.8,14.2,0000.0,0007.77,0019.50,0004.49
2022-04-28 04:43:00,,0821.0,5.00,0.00,28.1,27.5,00.0,37.1,29.8,14.2,0000.0,0007.90,0019.98,0004.50
2022-04-28 04:44:00,,0821.0,5.00,0.00,28.1,27.5,00.0,37.1,29.8,14.2,0000.0,0007.97,0020.59,0004.50
2022-04-28 04:45:00,,0821.0,4.99,0.00,28.1,27.5,00.0,37.1,29.8,14.2,0000.0,0008.09,0021.20,0004.49
2022-04-28 04:46:00,,0821.0,5.01,0.00,28.1,27.4,00.0,37.1,29.8,14.1,0000.0,0008.14,0021.12,0004.50
2022-04-28 04:47:00,,0821.0,4.99,0.00,28.1,27.4,00.0,37.1,29.8,14.1,0000.0,0008.22,0021.24,0004.51
2022-04-28 04:48:00,,0821.0,4.99,0.00,28.1,27.4,00.0,37.1,29.8,14.1,-000.2,0008.20,0021.41,0004.51
2022-04-28 04:49:00,,0821.0,5.00,0.00,28.0,27.4,00.0,37.1,29.8,14.1,-001.1,0008.13,0021.23,0004.51
2022-04-28 04:50:00,,0821.0,5.01,0.00,28.0,27.4,00.0,37.1,29.8,14.0,-001.2,0008.10,0021.41,0004.51
2022-04-28 04:51:00,,0821.0,4.99,0.00,28.0,27.3,00.0,37.1,29.7,14.0,-001.9,0008.17,0021.72,0004.53
2022-04-28 04:52:00,,0821.0,4.99,0.00,28.0,27.3,00.0,37.1,29.7,14.0,-001.7,0008.16,0021.10,0004.53
2022-04-28 04:53:00,,0821.0,5.02,0.00,28.0,27.3,00.0,37.1,29.7,14.1,-001.8,0008.10,0021.05,0004.53
2022-04-28 04:54:00,,0821.0,4.99,0.00,28.0,27.3,00.0,37.0,29.7,14.0,-001.5,0008.10,0020.91,0004.52
2022-04-28 04:55:00,,0821.0,4.99,0.00,28.0,27.2,00.0,37.0,29.7,14.1,-001.0,0008.01,0020.28,0004.52
2022-04-28 04:56:00,,0821.0,5.01,0.00,28.0,27.2,00.0,37.0,29.7,14.0,-000.7,0007.85,0019.08,0004.53
2022-04-28 04:57:00,,0821.0,5.01,0.00,28.0,27.2,00.0,37.0,29.7,14.0,-001.2,0007.80,0018.71,0004.54
2022-04-28 04:58:00,,0821.0,4.99,0.00,27.9,27.2,00.0,37.0,29.7,13.9,-001.2,0007.80,0018.63,0004.54
2022-04-28 04:59:00,,0821.0,5.00,0.00,27.9,27.2,00.0,37.0,29.7,13.9,-000.9,0007.80,0018.36,0004.54
